owner,sensor,date,latitude,longitude,vertical_datum,sea_water_practical_salinity,qcFlag 
ENP,ioos.station.NOAA.NDBC:CWAF1:1,2014-11-01T10:00:00Z,25.2970,-81.0130,1.5,10.79,1111122 
ENP,ioos.station.NOAA.NDBC:CWAF1:1,2014-11-01T11:00:00Z,25.2970,-81.0130,1.5,20.41,1111122 
ENP,ioos.station.NOAA.NDBC:CWAF1:1,2014-11-01T12:00:00Z,25.2970,-81.0130,1.5,20.34,1111122 
ENP,ioos.station.NOAA.NDBC:CWAF1:1,2014-11-01T13:00:00Z,25.2970,-81.0130,1.5,19.72,1111122 
ENP,ioos.station.NOAA.NDBC:CWAF1:1,2014-11-01T14:00:00Z,25.2970,-81.0130,1.5,19.79,1111122 
ENP,ioos.station.NOAA.NDBC:CWAF1:1,2014-11-01T15:00:00Z,25.2970,-81.0130,1.5,9.36,1111122 
ENP,ioos.station.NOAA.NDBC:CWAF1:1,2014-11-01T16:00:00Z,25.2970,-81.0130,1.5,8.39,1111122 
ENP,ioos.station.NOAA.NDBC:CWAF1:1,2014-11-01T18:00:00Z,25.2970,-81.0130,1.5,8.17,1111122 
ENP,ioos.station.NOAA.NDBC:CWAF1:1,2014-11-01T19:00:00Z,25.2970,-81.0130,1.5,7.58,1111122 
ENP,ioos.station.NOAA.NDBC:CWAF1:1,2014-11-01T20:00:00Z,25.2970,-81.0130,1.5,8.04,1111122 
ENP,ioos.station.NOAA.NDBC:CWAF1:1,2014-11-01T22:00:00Z,25.2970,-81.0130,1.5,12.49,1111122 
ENP,ioos.station.NOAA.NDBC:CWAF1:1,2014-11-01T23:00:00Z,25.2970,-81.0130,1.5,11.71,1111122 
ENP,ioos.station.NOAA.NDBC:CWAF1:1,2014-11-02T00:00:00Z,25.2970,-81.0130,1.5,5.42,1111122 
ENP,ioos.station.NOAA.NDBC:CWAF1:1,2014-11-02T02:00:00Z,25.2970,-81.0130,1.5,10.61,1111122 
ENP,ioos.station.NOAA.NDBC:CWAF1:1,2014-11-02T03:00:00Z,25.2970,-81.0130,1.5,22.27,1111122 
ENP,ioos.station.NOAA.NDBC:CWAF1:1,2014-11-02T05:00:00Z,25.2970,-81.0130,1.5,12.69,1111122 
ENP,ioos.station.NOAA.NDBC:CWAF1:1,2014-11-02T09:00:00Z,25.2970,-81.0130,1.5,17.21,1111122 
ENP,ioos.station.NOAA.NDBC:CWAF1:1,2014-11-02T10:00:00Z,25.2970,-81.0130,1.5,17.54,1111122 
ENP,ioos.station.NOAA.NDBC:CWAF1:1,2014-11-02T11:00:00Z,25.2970,-81.0130,1.5,17.21,1111122 
ENP,ioos.station.NOAA.NDBC:CWAF1:1,2014-11-02T13:00:00Z,25.2970,-81.0130,1.5,17.27,1111122 
ENP,ioos.station.NOAA.NDBC:CWAF1:1,2014-11-02T14:00:00Z,25.2970,-81.0130,1.5,17.27,1111122 
ENP,ioos.station.NOAA.NDBC:CWAF1:1,2014-11-02T15:00:00Z,25.2970,-81.0130,1.5,19.65,1111122 
ENP,ioos.station.NOAA.NDBC:CWAF1:1,2014-11-02T16:00:00Z,25.2970,-81.0130,1.5,21.37,1111122 
ENP,ioos.station.NOAA.NDBC:CWAF1:1,2014-11-02T17:00:00Z,25.2970,-81.0130,1.5,21.3,1111122 
ENP,ioos.station.NOAA.NDBC:CWAF1:1,2014-11-02T18:00:00Z,25.2970,-81.0130,1.5,20.61,1111122 
ENP,ioos.station.NOAA.NDBC:CWAF1:1,2014-11-02T19:00:00Z,25.2970,-81.0130,1.5,17.14,1111122 
ENP,ioos.station.NOAA.NDBC:CWAF1:1,2014-11-02T21:00:00Z,25.2970,-81.0130,1.5,17.34,1111122 
ENP,ioos.station.NOAA.NDBC:CWAF1:1,2014-11-02T22:00:00Z,25.2970,-81.0130,1.5,17.07,1111122 
ENP,ioos.station.NOAA.NDBC:CWAF1:1,2014-11-03T00:00:00Z,25.2970,-81.0130,1.5,16.6,1111122 
ENP,ioos.station.NOAA.NDBC:CWAF1:1,2014-11-03T01:00:00Z,25.2970,-81.0130,1.5,16.53,1111122 
ENP,ioos.station.NOAA.NDBC:CWAF1:1,2014-11-03T02:00:00Z,25.2970,-81.0130,1.5,18.22,1111122 
ENP,ioos.station.NOAA.NDBC:CWAF1:1,2014-11-03T03:00:00Z,25.2970,-81.0130,1.5,17.48,1111122 
ENP,ioos.station.NOAA.NDBC:CWAF1:1,2014-11-03T05:00:00Z,25.2970,-81.0130,1.5,18.63,1111122 
ENP,ioos.station.NOAA.NDBC:CWAF1:1,2014-11-03T06:00:00Z,25.2970,-81.0130,1.5,19.04,1111122 
ENP,ioos.station.NOAA.NDBC:CWAF1:1,2014-11-03T08:00:00Z,25.2970,-81.0130,1.5,17.41,1111122 
ENP,ioos.station.NOAA.NDBC:CWAF1:1,2014-11-03T10:00:00Z,25.2970,-81.0130,1.5,16.67,1111122 
ENP,ioos.station.NOAA.NDBC:CWAF1:1,2014-11-03T11:00:00Z,25.2970,-81.0130,1.5,16.0,1111122 
ENP,ioos.station.NOAA.NDBC:CWAF1:1,2014-11-03T13:00:00Z,25.2970,-81.0130,1.5,16.06,1111122 
ENP,ioos.station.NOAA.NDBC:CWAF1:1,2014-11-03T14:00:00Z,25.2970,-81.0130,1.5,17.27,1111122 
ENP,ioos.station.NOAA.NDBC:CWAF1:1,2014-11-03T15:00:00Z,25.2970,-81.0130,1.5,18.09,1111122 
ENP,ioos.station.NOAA.NDBC:CWAF1:1,2014-11-03T16:00:00Z,25.2970,-81.0130,1.5,17.61,1111122 
ENP,ioos.station.NOAA.NDBC:CWAF1:1,2014-11-03T17:00:00Z,25.2970,-81.0130,1.5,17.14,1111122 
ENP,ioos.station.NOAA.NDBC:CWAF1:1,2014-11-03T18:00:00Z,25.2970,-81.0130,1.5,17.0,1111122 
ENP,ioos.station.NOAA.NDBC:CWAF1:1,2014-11-03T19:00:00Z,25.2970,-81.0130,1.5,17.27,1111122 
ENP,ioos.station.NOAA.NDBC:CWAF1:1,2014-11-03T21:00:00Z,25.2970,-81.0130,1.5,17.95,1111122 
ENP,ioos.station.NOAA.NDBC:CWAF1:1,2014-11-03T22:00:00Z,25.2970,-81.0130,1.5,17.48,1111122 
ENP,ioos.station.NOAA.NDBC:CWAF1:1,2014-11-03T23:00:00Z,25.2970,-81.0130,1.5,17.48,1111122 
ENP,ioos.station.NOAA.NDBC:CWAF1:1,2014-11-04T01:00:00Z,25.2970,-81.0130,1.5,17.41,1111122 
ENP,ioos.station.NOAA.NDBC:CWAF1:1,2014-11-04T02:00:00Z,25.2970,-81.0130,1.5,17.14,1111122 
ENP,ioos.station.NOAA.NDBC:CWAF1:1,2014-11-04T03:00:00Z,25.2970,-81.0130,1.5,17.21,1111122 
ENP,ioos.station.NOAA.NDBC:CWAF1:1,2014-11-04T05:00:00Z,25.2970,-81.0130,1.5,17.07,1111122 
ENP,ioos.station.NOAA.NDBC:CWAF1:1,2014-11-04T06:00:00Z,25.2970,-81.0130,1.5,16.47,1111122 
ENP,ioos.station.NOAA.NDBC:CWAF1:1,2014-11-04T08:00:00Z,25.2970,-81.0130,1.5,16.47,1111122 
ENP,ioos.station.NOAA.NDBC:CWAF1:1,2014-11-04T09:00:00Z,25.2970,-81.0130,1.5,16.13,1111122 
ENP,ioos.station.NOAA.NDBC:CWAF1:1,2014-11-04T10:00:00Z,25.2970,-81.0130,1.5,16.4,1111122 
ENP,ioos.station.NOAA.NDBC:CWAF1:1,2014-11-04T11:00:00Z,25.2970,-81.0130,1.5,16.47,1111122 
ENP,ioos.station.NOAA.NDBC:CWAF1:1,2014-11-04T13:00:00Z,25.2970,-81.0130,1.5,16.47,1111122 
ENP,ioos.station.NOAA.NDBC:CWAF1:1,2014-11-04T14:00:00Z,25.2970,-81.0130,1.5,16.8,1111122 
ENP,ioos.station.NOAA.NDBC:CWAF1:1,2014-11-04T16:00:00Z,25.2970,-81.0130,1.5,16.6,1111122 
ENP,ioos.station.NOAA.NDBC:CWAF1:1,2014-11-04T18:00:00Z,25.2970,-81.0130,1.5,16.87,1111122 
ENP,ioos.station.NOAA.NDBC:CWAF1:1,2014-11-04T19:00:00Z,25.2970,-81.0130,1.5,16.87,1111122 
ENP,ioos.station.NOAA.NDBC:CWAF1:1,2014-11-04T21:00:00Z,25.2970,-81.0130,1.5,16.53,1111122 
ENP,ioos.station.NOAA.NDBC:CWAF1:1,2014-11-04T22:00:00Z,25.2970,-81.0130,1.5,16.8,1111122 
ENP,ioos.station.NOAA.NDBC:CWAF1:1,2014-11-04T23:00:00Z,25.2970,-81.0130,1.5,16.47,1111122 
ENP,ioos.station.NOAA.NDBC:CWAF1:1,2014-11-05T01:00:00Z,25.2970,-81.0130,1.5,16.53,1111122 
ENP,ioos.station.NOAA.NDBC:CWAF1:1,2014-11-05T02:00:00Z,25.2970,-81.0130,1.5,16.47,1111122 
ENP,ioos.station.NOAA.NDBC:CWAF1:1,2014-11-05T03:00:00Z,25.2970,-81.0130,1.5,16.6,1111122 
ENP,ioos.station.NOAA.NDBC:CWAF1:1,2014-11-05T05:00:00Z,25.2970,-81.0130,1.5,16.53,1111122 
ENP,ioos.station.NOAA.NDBC:CWAF1:1,2014-11-05T06:00:00Z,25.2970,-81.0130,1.5,16.8,1111122 
ENP,ioos.station.NOAA.NDBC:CWAF1:1,2014-11-05T07:00:00Z,25.2970,-81.0130,1.5,16.53,1111122 
ENP,ioos.station.NOAA.NDBC:CWAF1:1,2014-11-05T09:00:00Z,25.2970,-81.0130,1.5,16.53,1111122 
ENP,ioos.station.NOAA.NDBC:CWAF1:1,2014-11-05T10:00:00Z,25.2970,-81.0130,1.5,16.67,1111122 
ENP,ioos.station.NOAA.NDBC:CWAF1:1,2014-11-05T11:00:00Z,25.2970,-81.0130,1.5,16.87,1111122 
ENP,ioos.station.NOAA.NDBC:CWAF1:1,2014-11-05T13:00:00Z,25.2970,-81.0130,1.5,16.47,1111122 
ENP,ioos.station.NOAA.NDBC:CWAF1:1,2014-11-05T14:00:00Z,25.2970,-81.0130,1.5,16.26,1111122 
ENP,ioos.station.NOAA.NDBC:CWAF1:1,2014-11-05T15:00:00Z,25.2970,-81.0130,1.5,16.73,1111122 
ENP,ioos.station.NOAA.NDBC:CWAF1:1,2014-11-05T16:00:00Z,25.2970,-81.0130,1.5,16.8,1111122 
ENP,ioos.station.NOAA.NDBC:CWAF1:1,2014-11-05T17:00:00Z,25.2970,-81.0130,1.5,16.94,1111122 
ENP,ioos.station.NOAA.NDBC:CWAF1:1,2014-11-05T19:00:00Z,25.2970,-81.0130,1.5,17.07,1111122 
ENP,ioos.station.NOAA.NDBC:CWAF1:1,2014-11-05T21:00:00Z,25.2970,-81.0130,1.5,17.0,1111122 
ENP,ioos.station.NOAA.NDBC:CWAF1:1,2014-11-05T22:00:00Z,25.2970,-81.0130,1.5,16.94,1111122 
ENP,ioos.station.NOAA.NDBC:CWAF1:1,2014-11-05T23:00:00Z,25.2970,-81.0130,1.5,17.14,1111122 
ENP,ioos.station.NOAA.NDBC:CWAF1:1,2014-11-06T00:00:00Z,25.2970,-81.0130,1.5,16.73,1111122 
ENP,ioos.station.NOAA.NDBC:CWAF1:1,2014-11-06T01:00:00Z,25.2970,-81.0130,1.5,16.67,1111122 
ENP,ioos.station.NOAA.NDBC:CWAF1:1,2014-11-06T02:00:00Z,25.2970,-81.0130,1.5,16.8,1111122 
ENP,ioos.station.NOAA.NDBC:CWAF1:1,2014-11-06T03:00:00Z,25.2970,-81.0130,1.5,16.73,1111122 
ENP,ioos.station.NOAA.NDBC:CWAF1:1,2014-11-06T05:00:00Z,25.2970,-81.0130,1.5,17.48,1111122 
ENP,ioos.station.NOAA.NDBC:CWAF1:1,2014-11-06T06:00:00Z,25.2970,-81.0130,1.5,17.48,1111122 
ENP,ioos.station.NOAA.NDBC:CWAF1:1,2014-11-06T07:00:00Z,25.2970,-81.0130,1.5,17.14,1111122 
ENP,ioos.station.NOAA.NDBC:CWAF1:1,2014-11-06T09:00:00Z,25.2970,-81.0130,1.5,17.14,1111122 
ENP,ioos.station.NOAA.NDBC:CWAF1:1,2014-11-06T10:00:00Z,25.2970,-81.0130,1.5,17.48,1111122 
ENP,ioos.station.NOAA.NDBC:CWAF1:1,2014-11-06T11:00:00Z,25.2970,-81.0130,1.5,17.27,1111122 
ENP,ioos.station.NOAA.NDBC:CWAF1:1,2014-11-06T12:00:00Z,25.2970,-81.0130,1.5,17.0,1111122 
ENP,ioos.station.NOAA.NDBC:CWAF1:1,2014-11-06T13:00:00Z,25.2970,-81.0130,1.5,16.73,1111122 
ENP,ioos.station.NOAA.NDBC:CWAF1:1,2014-11-06T14:00:00Z,25.2970,-81.0130,1.5,16.87,1111122 
ENP,ioos.station.NOAA.NDBC:CWAF1:1,2014-11-06T15:00:00Z,25.2970,-81.0130,1.5,16.53,1111122 
ENP,ioos.station.NOAA.NDBC:CWAF1:1,2014-11-06T17:00:00Z,25.2970,-81.0130,1.5,17.21,1111122 
ENP,ioos.station.NOAA.NDBC:CWAF1:1,2014-11-06T18:00:00Z,25.2970,-81.0130,1.5,17.68,1111122 
ENP,ioos.station.NOAA.NDBC:CWAF1:1,2014-11-06T19:00:00Z,25.2970,-81.0130,1.5,17.81,1111122 
ENP,ioos.station.NOAA.NDBC:CWAF1:1,2014-11-06T21:00:00Z,25.2970,-81.0130,1.5,17.48,1111122 
ENP,ioos.station.NOAA.NDBC:CWAF1:1,2014-11-06T22:00:00Z,25.2970,-81.0130,1.5,17.54,1111122 
ENP,ioos.station.NOAA.NDBC:CWAF1:1,2014-11-06T23:00:00Z,25.2970,-81.0130,1.5,17.61,1111122 
ENP,ioos.station.NOAA.NDBC:CWAF1:1,2014-11-07T01:00:00Z,25.2970,-81.0130,1.5,17.68,1111122 
ENP,ioos.station.NOAA.NDBC:CWAF1:1,2014-11-07T02:00:00Z,25.2970,-81.0130,1.5,17.48,1111122 
ENP,ioos.station.NOAA.NDBC:CWAF1:1,2014-11-07T03:00:00Z,25.2970,-81.0130,1.5,17.54,1111122 
ENP,ioos.station.NOAA.NDBC:CWAF1:1,2014-11-07T05:00:00Z,25.2970,-81.0130,1.5,17.54,1111122 
ENP,ioos.station.NOAA.NDBC:CWAF1:1,2014-11-07T06:00:00Z,25.2970,-81.0130,1.5,19.31,1111122 
ENP,ioos.station.NOAA.NDBC:CWAF1:1,2014-11-07T07:00:00Z,25.2970,-81.0130,1.5,18.56,1111122 
ENP,ioos.station.NOAA.NDBC:CWAF1:1,2014-11-07T09:00:00Z,25.2970,-81.0130,1.5,18.49,1111122 
ENP,ioos.station.NOAA.NDBC:CWAF1:1,2014-11-07T10:00:00Z,25.2970,-81.0130,1.5,18.9,1111122 
ENP,ioos.station.NOAA.NDBC:CWAF1:1,2014-11-07T11:00:00Z,25.2970,-81.0130,1.5,18.22,1111122 
ENP,ioos.station.NOAA.NDBC:CWAF1:1,2014-11-07T12:00:00Z,25.2970,-81.0130,1.5,17.95,1111122 
ENP,ioos.station.NOAA.NDBC:CWAF1:1,2014-11-07T13:00:00Z,25.2970,-81.0130,1.5,17.54,1111122 
ENP,ioos.station.NOAA.NDBC:CWAF1:1,2014-11-07T14:00:00Z,25.2970,-81.0130,1.5,17.48,1111122 
ENP,ioos.station.NOAA.NDBC:CWAF1:1,2014-11-07T16:00:00Z,25.2970,-81.0130,1.5,17.07,1111122 
ENP,ioos.station.NOAA.NDBC:CWAF1:1,2014-11-07T17:00:00Z,25.2970,-81.0130,1.5,17.54,1111122 
ENP,ioos.station.NOAA.NDBC:CWAF1:1,2014-11-07T18:00:00Z,25.2970,-81.0130,1.5,18.56,1111122 
ENP,ioos.station.NOAA.NDBC:CWAF1:1,2014-11-07T19:00:00Z,25.2970,-81.0130,1.5,19.45,1111122 
ENP,ioos.station.NOAA.NDBC:CWAF1:1,2014-11-07T21:00:00Z,25.2970,-81.0130,1.5,19.24,1111122 
ENP,ioos.station.NOAA.NDBC:CWAF1:1,2014-11-07T22:00:00Z,25.2970,-81.0130,1.5,19.52,1111122 
ENP,ioos.station.NOAA.NDBC:CWAF1:1,2014-11-07T23:00:00Z,25.2970,-81.0130,1.5,19.52,1111122 
ENP,ioos.station.NOAA.NDBC:CWAF1:1,2014-11-08T01:00:00Z,25.2970,-81.0130,1.5,19.24,1111122 
ENP,ioos.station.NOAA.NDBC:CWAF1:1,2014-11-08T02:00:00Z,25.2970,-81.0130,1.5,18.76,1111122 
ENP,ioos.station.NOAA.NDBC:CWAF1:1,2014-11-08T03:00:00Z,25.2970,-81.0130,1.5,17.54,1111122 
ENP,ioos.station.NOAA.NDBC:CWAF1:1,2014-11-08T05:00:00Z,25.2970,-81.0130,1.5,19.52,1111122 
ENP,ioos.station.NOAA.NDBC:CWAF1:1,2014-11-08T07:00:00Z,25.2970,-81.0130,1.5,20.2,1111122 
ENP,ioos.station.NOAA.NDBC:CWAF1:1,2014-11-08T09:00:00Z,25.2970,-81.0130,1.5,20.41,1111122 
ENP,ioos.station.NOAA.NDBC:CWAF1:1,2014-11-08T10:00:00Z,25.2970,-81.0130,1.5,20.27,1111122 
ENP,ioos.station.NOAA.NDBC:CWAF1:1,2014-11-08T11:00:00Z,25.2970,-81.0130,1.5,20.61,1111122 
ENP,ioos.station.NOAA.NDBC:CWAF1:1,2014-11-08T12:00:00Z,25.2970,-81.0130,1.5,19.79,1111122 
ENP,ioos.station.NOAA.NDBC:CWAF1:1,2014-11-08T13:00:00Z,25.2970,-81.0130,1.5,19.45,1111122 
ENP,ioos.station.NOAA.NDBC:CWAF1:1,2014-11-08T14:00:00Z,25.2970,-81.0130,1.5,19.24,1111122 
ENP,ioos.station.NOAA.NDBC:CWAF1:1,2014-11-08T16:00:00Z,25.2970,-81.0130,1.5,17.75,1111122 
ENP,ioos.station.NOAA.NDBC:CWAF1:1,2014-11-08T17:00:00Z,25.2970,-81.0130,1.5,17.34,1111122 
ENP,ioos.station.NOAA.NDBC:CWAF1:1,2014-11-08T19:00:00Z,25.2970,-81.0130,1.5,19.24,1111122 
ENP,ioos.station.NOAA.NDBC:CWAF1:1,2014-11-08T20:00:00Z,25.2970,-81.0130,1.5,19.38,1111122 
ENP,ioos.station.NOAA.NDBC:CWAF1:1,2014-11-08T21:00:00Z,25.2970,-81.0130,1.5,19.93,1111122 
ENP,ioos.station.NOAA.NDBC:CWAF1:1,2014-11-08T22:00:00Z,25.2970,-81.0130,1.5,19.52,1111122 
ENP,ioos.station.NOAA.NDBC:CWAF1:1,2014-11-09T00:00:00Z,25.2970,-81.0130,1.5,19.31,1111122 
ENP,ioos.station.NOAA.NDBC:CWAF1:1,2014-11-09T01:00:00Z,25.2970,-81.0130,1.5,19.38,1111122 
ENP,ioos.station.NOAA.NDBC:CWAF1:1,2014-11-09T02:00:00Z,25.2970,-81.0130,1.5,19.45,1111122 
ENP,ioos.station.NOAA.NDBC:CWAF1:1,2014-11-09T03:00:00Z,25.2970,-81.0130,1.5,18.7,1111122 
ENP,ioos.station.NOAA.NDBC:CWAF1:1,2014-11-09T05:00:00Z,25.2970,-81.0130,1.5,19.31,1111122 
ENP,ioos.station.NOAA.NDBC:CWAF1:1,2014-11-09T06:00:00Z,25.2970,-81.0130,1.5,18.83,1111122 
ENP,ioos.station.NOAA.NDBC:CWAF1:1,2014-11-09T07:00:00Z,25.2970,-81.0130,1.5,20.27,1111122 
ENP,ioos.station.NOAA.NDBC:CWAF1:1,2014-11-09T09:00:00Z,25.2970,-81.0130,1.5,20.96,1111122 
ENP,ioos.station.NOAA.NDBC:CWAF1:1,2014-11-09T10:00:00Z,25.2970,-81.0130,1.5,20.06,1111122 
ENP,ioos.station.NOAA.NDBC:CWAF1:1,2014-11-09T11:00:00Z,25.2970,-81.0130,1.5,20.61,1111122 
ENP,ioos.station.NOAA.NDBC:CWAF1:1,2014-11-09T14:00:00Z,25.2970,-81.0130,1.5,19.24,1111122 
ENP,ioos.station.NOAA.NDBC:CWAF1:1,2014-11-09T15:00:00Z,25.2970,-81.0130,1.5,19.04,1111122 
ENP,ioos.station.NOAA.NDBC:CWAF1:1,2014-11-09T17:00:00Z,25.2970,-81.0130,1.5,17.95,1111122 
ENP,ioos.station.NOAA.NDBC:CWAF1:1,2014-11-09T18:00:00Z,25.2970,-81.0130,1.5,18.56,1111122 
ENP,ioos.station.NOAA.NDBC:CWAF1:1,2014-11-09T19:00:00Z,25.2970,-81.0130,1.5,18.97,1111122 
ENP,ioos.station.NOAA.NDBC:CWAF1:1,2014-11-09T20:00:00Z,25.2970,-81.0130,1.5,19.79,1111122 
ENP,ioos.station.NOAA.NDBC:CWAF1:1,2014-11-09T21:00:00Z,25.2970,-81.0130,1.5,20.41,1111122 
ENP,ioos.station.NOAA.NDBC:CWAF1:1,2014-11-09T22:00:00Z,25.2970,-81.0130,1.5,19.99,1111122 
ENP,ioos.station.NOAA.NDBC:CWAF1:1,2014-11-10T00:00:00Z,25.2970,-81.0130,1.5,19.93,1111122 
ENP,ioos.station.NOAA.NDBC:CWAF1:1,2014-11-10T01:00:00Z,25.2970,-81.0130,1.5,19.65,1111122 
ENP,ioos.station.NOAA.NDBC:CWAF1:1,2014-11-10T02:00:00Z,25.2970,-81.0130,1.5,19.17,1111122 
ENP,ioos.station.NOAA.NDBC:CWAF1:1,2014-11-10T03:00:00Z,25.2970,-81.0130,1.5,18.49,1111122 
ENP,ioos.station.NOAA.NDBC:CWAF1:1,2014-11-10T04:00:00Z,25.2970,-81.0130,1.5,18.15,1111122 
ENP,ioos.station.NOAA.NDBC:CWAF1:1,2014-11-10T06:00:00Z,25.2970,-81.0130,1.5,19.17,1111122 
ENP,ioos.station.NOAA.NDBC:CWAF1:1,2014-11-10T08:00:00Z,25.2970,-81.0130,1.5,19.58,1111122 
ENP,ioos.station.NOAA.NDBC:CWAF1:1,2014-11-10T09:00:00Z,25.2970,-81.0130,1.5,19.65,1111122 
ENP,ioos.station.NOAA.NDBC:CWAF1:1,2014-11-10T10:00:00Z,25.2970,-81.0130,1.5,19.65,1111122 
ENP,ioos.station.NOAA.NDBC:CWAF1:1,2014-11-10T11:00:00Z,25.2970,-81.0130,1.5,19.58,1111122 
ENP,ioos.station.NOAA.NDBC:CWAF1:1,2014-11-10T12:00:00Z,25.2970,-81.0130,1.5,19.31,1111122 
ENP,ioos.station.NOAA.NDBC:CWAF1:1,2014-11-10T13:00:00Z,25.2970,-81.0130,1.5,19.31,1111122 
ENP,ioos.station.NOAA.NDBC:CWAF1:1,2014-11-10T14:00:00Z,25.2970,-81.0130,1.5,19.31,1111122 
ENP,ioos.station.NOAA.NDBC:CWAF1:1,2014-11-10T16:00:00Z,25.2970,-81.0130,1.5,18.02,1111122 
ENP,ioos.station.NOAA.NDBC:CWAF1:1,2014-11-10T17:00:00Z,25.2970,-81.0130,1.5,17.41,1111122 
ENP,ioos.station.NOAA.NDBC:CWAF1:1,2014-11-10T18:00:00Z,25.2970,-81.0130,1.5,17.14,1111122 
ENP,ioos.station.NOAA.NDBC:CWAF1:1,2014-11-10T20:00:00Z,25.2970,-81.0130,1.5,19.24,1111122 
ENP,ioos.station.NOAA.NDBC:CWAF1:1,2014-11-10T21:00:00Z,25.2970,-81.0130,1.5,19.45,1111122 
ENP,ioos.station.NOAA.NDBC:CWAF1:1,2014-11-10T22:00:00Z,25.2970,-81.0130,1.5,19.45,1111122 
ENP,ioos.station.NOAA.NDBC:CWAF1:1,2014-11-10T23:00:00Z,25.2970,-81.0130,1.5,19.31,1111122 
ENP,ioos.station.NOAA.NDBC:CWAF1:1,2014-11-11T01:00:00Z,25.2970,-81.0130,1.5,19.38,1111122 
ENP,ioos.station.NOAA.NDBC:CWAF1:1,2014-11-11T02:00:00Z,25.2970,-81.0130,1.5,19.11,1111122 
ENP,ioos.station.NOAA.NDBC:CWAF1:1,2014-11-11T03:00:00Z,25.2970,-81.0130,1.5,19.17,1111122 
ENP,ioos.station.NOAA.NDBC:CWAF1:1,2014-11-11T05:00:00Z,25.2970,-81.0130,1.5,18.97,1111122 
ENP,ioos.station.NOAA.NDBC:CWAF1:1,2014-11-11T06:00:00Z,25.2970,-81.0130,1.5,19.04,1111122 
ENP,ioos.station.NOAA.NDBC:CWAF1:1,2014-11-11T07:00:00Z,25.2970,-81.0130,1.5,19.24,1111122 
ENP,ioos.station.NOAA.NDBC:CWAF1:1,2014-11-11T09:00:00Z,25.2970,-81.0130,1.5,20.06,1111122 
ENP,ioos.station.NOAA.NDBC:CWAF1:1,2014-11-11T10:00:00Z,25.2970,-81.0130,1.5,20.2,1111122 
ENP,ioos.station.NOAA.NDBC:CWAF1:1,2014-11-11T11:00:00Z,25.2970,-81.0130,1.5,20.13,1111122 
ENP,ioos.station.NOAA.NDBC:CWAF1:1,2014-11-11T13:00:00Z,25.2970,-81.0130,1.5,19.65,1111122 
ENP,ioos.station.NOAA.NDBC:CWAF1:1,2014-11-11T14:00:00Z,25.2970,-81.0130,1.5,19.31,1111122 
ENP,ioos.station.NOAA.NDBC:CWAF1:1,2014-11-11T15:00:00Z,25.2970,-81.0130,1.5,19.17,1111122 
ENP,ioos.station.NOAA.NDBC:CWAF1:1,2014-11-11T16:00:00Z,25.2970,-81.0130,1.5,19.52,1111122 
ENP,ioos.station.NOAA.NDBC:CWAF1:1,2014-11-11T17:00:00Z,25.2970,-81.0130,1.5,18.22,1111122 
ENP,ioos.station.NOAA.NDBC:CWAF1:1,2014-11-11T18:00:00Z,25.2970,-81.0130,1.5,17.14,1111122 
ENP,ioos.station.NOAA.NDBC:CWAF1:1,2014-11-11T19:00:00Z,25.2970,-81.0130,1.5,17.41,1111122 
ENP,ioos.station.NOAA.NDBC:CWAF1:1,2014-11-11T20:00:00Z,25.2970,-81.0130,1.5,18.49,1111122 
ENP,ioos.station.NOAA.NDBC:CWAF1:1,2014-11-11T21:00:00Z,25.2970,-81.0130,1.5,19.45,1111122 
ENP,ioos.station.NOAA.NDBC:CWAF1:1,2014-11-11T22:00:00Z,25.2970,-81.0130,1.5,19.45,1111122 
ENP,ioos.station.NOAA.NDBC:CWAF1:1,2014-11-11T23:00:00Z,25.2970,-81.0130,1.5,19.38,1111122 
ENP,ioos.station.NOAA.NDBC:CWAF1:1,2014-11-12T20:00:00Z,25.2970,-81.0130,1.5,18.63,1111122 
ENP,ioos.station.NOAA.NDBC:CWAF1:1,2014-11-12T21:00:00Z,25.2970,-81.0130,1.5,19.04,1111122 
ENP,ioos.station.NOAA.NDBC:CWAF1:1,2014-11-12T22:00:00Z,25.2970,-81.0130,1.5,18.97,1111122 
ENP,ioos.station.NOAA.NDBC:CWAF1:1,2014-11-13T00:00:00Z,25.2970,-81.0130,1.5,18.7,1111122 
ENP,ioos.station.NOAA.NDBC:CWAF1:1,2014-11-13T01:00:00Z,25.2970,-81.0130,1.5,19.04,1111122 
ENP,ioos.station.NOAA.NDBC:CWAF1:1,2014-11-13T02:00:00Z,25.2970,-81.0130,1.5,18.97,1111122 
ENP,ioos.station.NOAA.NDBC:CWAF1:1,2014-11-13T03:00:00Z,25.2970,-81.0130,1.5,19.04,1111122 
ENP,ioos.station.NOAA.NDBC:CWAF1:1,2014-11-13T05:00:00Z,25.2970,-81.0130,1.5,18.42,1111122 
ENP,ioos.station.NOAA.NDBC:CWAF1:1,2014-11-13T06:00:00Z,25.2970,-81.0130,1.5,19.24,1111122 
ENP,ioos.station.NOAA.NDBC:CWAF1:1,2014-11-13T07:00:00Z,25.2970,-81.0130,1.5,18.9,1111122 
ENP,ioos.station.NOAA.NDBC:CWAF1:1,2014-11-13T08:00:00Z,25.2970,-81.0130,1.5,18.83,1111122 
ENP,ioos.station.NOAA.NDBC:CWAF1:1,2014-11-13T09:00:00Z,25.2970,-81.0130,1.5,18.63,1111122 
ENP,ioos.station.NOAA.NDBC:CWAF1:1,2014-11-13T10:00:00Z,25.2970,-81.0130,1.5,18.9,1111122 
ENP,ioos.station.NOAA.NDBC:CWAF1:1,2014-11-13T11:00:00Z,25.2970,-81.0130,1.5,18.9,1111122 
ENP,ioos.station.NOAA.NDBC:CWAF1:1,2014-11-13T12:00:00Z,25.2970,-81.0130,1.5,18.76,1111122 
ENP,ioos.station.NOAA.NDBC:CWAF1:1,2014-11-13T13:00:00Z,25.2970,-81.0130,1.5,19.24,1111122 
ENP,ioos.station.NOAA.NDBC:CWAF1:1,2014-11-13T14:00:00Z,25.2970,-81.0130,1.5,18.76,1111122 
ENP,ioos.station.NOAA.NDBC:CWAF1:1,2014-11-13T16:00:00Z,25.2970,-81.0130,1.5,18.97,1111122 
ENP,ioos.station.NOAA.NDBC:CWAF1:1,2014-11-13T17:00:00Z,25.2970,-81.0130,1.5,18.9,1111122 
ENP,ioos.station.NOAA.NDBC:CWAF1:1,2014-11-13T18:00:00Z,25.2970,-81.0130,1.5,18.49,1111122 
ENP,ioos.station.NOAA.NDBC:CWAF1:1,2014-11-13T19:00:00Z,25.2970,-81.0130,1.5,16.6,1111122 
ENP,ioos.station.NOAA.NDBC:CWAF1:1,2014-11-13T22:00:00Z,25.2970,-81.0130,1.5,18.56,1111122 
ENP,ioos.station.NOAA.NDBC:CWAF1:1,2014-11-13T23:00:00Z,25.2970,-81.0130,1.5,18.29,1111122 
ENP,ioos.station.NOAA.NDBC:CWAF1:1,2014-11-14T00:00:00Z,25.2970,-81.0130,1.5,18.36,1111122 
ENP,ioos.station.NOAA.NDBC:CWAF1:1,2014-11-14T01:00:00Z,25.2970,-81.0130,1.5,18.29,1111122 
ENP,ioos.station.NOAA.NDBC:CWAF1:1,2014-11-14T02:00:00Z,25.2970,-81.0130,1.5,18.29,1111122 
ENP,ioos.station.NOAA.NDBC:CWAF1:1,2014-11-14T03:00:00Z,25.2970,-81.0130,1.5,18.36,1111122 
ENP,ioos.station.NOAA.NDBC:CWAF1:1,2014-11-14T05:00:00Z,25.2970,-81.0130,1.5,18.29,1111122 
ENP,ioos.station.NOAA.NDBC:CWAF1:1,2014-11-14T06:00:00Z,25.2970,-81.0130,1.5,18.22,1111122 
ENP,ioos.station.NOAA.NDBC:CWAF1:1,2014-11-14T07:00:00Z,25.2970,-81.0130,1.5,18.22,1111122 
ENP,ioos.station.NOAA.NDBC:CWAF1:1,2014-11-14T09:00:00Z,25.2970,-81.0130,1.5,18.29,1111122 
ENP,ioos.station.NOAA.NDBC:CWAF1:1,2014-11-14T10:00:00Z,25.2970,-81.0130,1.5,18.22,1111122 
ENP,ioos.station.NOAA.NDBC:CWAF1:1,2014-11-14T11:00:00Z,25.2970,-81.0130,1.5,18.29,1111122 
ENP,ioos.station.NOAA.NDBC:CWAF1:1,2014-11-14T13:00:00Z,25.2970,-81.0130,1.5,18.22,1111122 
ENP,ioos.station.NOAA.NDBC:CWAF1:1,2014-11-14T14:00:00Z,25.2970,-81.0130,1.5,18.76,1111122 
ENP,ioos.station.NOAA.NDBC:CWAF1:1,2014-11-14T16:00:00Z,25.2970,-81.0130,1.5,18.36,1111122 
ENP,ioos.station.NOAA.NDBC:CWAF1:1,2014-11-14T17:00:00Z,25.2970,-81.0130,1.5,18.02,1111122 
ENP,ioos.station.NOAA.NDBC:CWAF1:1,2014-11-14T18:00:00Z,25.2970,-81.0130,1.5,18.29,1111122 
ENP,ioos.station.NOAA.NDBC:CWAF1:1,2014-11-14T19:00:00Z,25.2970,-81.0130,1.5,17.88,1111122 
ENP,ioos.station.NOAA.NDBC:CWAF1:1,2014-11-14T21:00:00Z,25.2970,-81.0130,1.5,16.67,1111122 
ENP,ioos.station.NOAA.NDBC:CWAF1:1,2014-11-14T22:00:00Z,25.2970,-81.0130,1.5,18.09,1111122 
ENP,ioos.station.NOAA.NDBC:CWAF1:1,2014-11-15T00:00:00Z,25.2970,-81.0130,1.5,18.42,1111122 
ENP,ioos.station.NOAA.NDBC:CWAF1:1,2014-11-15T01:00:00Z,25.2970,-81.0130,1.5,18.56,1111122 
ENP,ioos.station.NOAA.NDBC:CWAF1:1,2014-11-15T02:00:00Z,25.2970,-81.0130,1.5,18.09,1111122 
ENP,ioos.station.NOAA.NDBC:CWAF1:1,2014-11-15T03:00:00Z,25.2970,-81.0130,1.5,18.29,1111122 
ENP,ioos.station.NOAA.NDBC:CWAF1:1,2014-11-15T05:00:00Z,25.2970,-81.0130,1.5,17.81,1111122 
ENP,ioos.station.NOAA.NDBC:CWAF1:1,2014-11-15T06:00:00Z,25.2970,-81.0130,1.5,17.81,1111122 
ENP,ioos.station.NOAA.NDBC:CWAF1:1,2014-11-15T07:00:00Z,25.2970,-81.0130,1.5,18.22,1111122 
ENP,ioos.station.NOAA.NDBC:CWAF1:1,2014-11-15T09:00:00Z,25.2970,-81.0130,1.5,17.61,1111122 
ENP,ioos.station.NOAA.NDBC:CWAF1:1,2014-11-15T10:00:00Z,25.2970,-81.0130,1.5,17.68,1111122 
ENP,ioos.station.NOAA.NDBC:CWAF1:1,2014-11-15T11:00:00Z,25.2970,-81.0130,1.5,18.22,1111122 
ENP,ioos.station.NOAA.NDBC:CWAF1:1,2014-11-15T12:00:00Z,25.2970,-81.0130,1.5,18.29,1111122 
ENP,ioos.station.NOAA.NDBC:CWAF1:1,2014-11-15T13:00:00Z,25.2970,-81.0130,1.5,18.97,1111122 
ENP,ioos.station.NOAA.NDBC:CWAF1:1,2014-11-15T14:00:00Z,25.2970,-81.0130,1.5,18.7,1111122 
ENP,ioos.station.NOAA.NDBC:CWAF1:1,2014-11-15T15:00:00Z,25.2970,-81.0130,1.5,18.36,1111122 
ENP,ioos.station.NOAA.NDBC:CWAF1:1,2014-11-15T16:00:00Z,25.2970,-81.0130,1.5,18.63,1111122 
ENP,ioos.station.NOAA.NDBC:CWAF1:1,2014-11-15T17:00:00Z,25.2970,-81.0130,1.5,18.49,1111122 
ENP,ioos.station.NOAA.NDBC:CWAF1:1,2014-11-15T18:00:00Z,25.2970,-81.0130,1.5,18.15,1111122 
ENP,ioos.station.NOAA.NDBC:CWAF1:1,2014-11-15T19:00:00Z,25.2970,-81.0130,1.5,17.07,1111122 
ENP,ioos.station.NOAA.NDBC:CWAF1:1,2014-11-15T21:00:00Z,25.2970,-81.0130,1.5,16.67,1111122 
ENP,ioos.station.NOAA.NDBC:CWAF1:1,2014-11-15T22:00:00Z,25.2970,-81.0130,1.5,16.6,1111122 
ENP,ioos.station.NOAA.NDBC:CWAF1:1,2014-11-15T23:00:00Z,25.2970,-81.0130,1.5,17.68,1111122 
ENP,ioos.station.NOAA.NDBC:CWAF1:1,2014-11-16T00:00:00Z,25.2970,-81.0130,1.5,17.88,1111122 
ENP,ioos.station.NOAA.NDBC:CWAF1:1,2014-11-16T01:00:00Z,25.2970,-81.0130,1.5,17.68,1111122 